JAL535 RJTT-RJCO

Flight info

Callsign JAL535
Flight time N/A
Altitude 35000
Route BRUCE AGRIS Y11 YTE Y113 WAPPA V13 HINAI Y113 YACHI V13 MRE V31 HWE V2 SPE39 MOIWA
Aircraft B738/M-SDE2E3FGHIRWXY/LB1

Departure

Time 2026-05-07 01:02
Airport Tokyo Haneda International Airport (RJTT)

Arrival

Time N/A
Airport Sapporo Okadama Airport (RJCO)
Time Latitude Longitude Altitude Speed Heading
2026-05-07 00:24 35.55248 139.78115 22 ft 0 kts 155°
2026-05-07 00:38 35.55253 139.78112 24 ft 2 kts 154°
2026-05-07 00:38 35.55270 139.78102 25 ft 3 kts 153°
2026-05-07 00:38 35.55288 139.78090 24 ft 3 kts 156°
2026-05-07 00:39 35.55307 139.78082 23 ft 3 kts 175°
2026-05-07 00:39 35.55321 139.78083 24 ft 2 kts 230°
2026-05-07 00:39 35.55323 139.78086 23 ft 0 kts 239°
2026-05-07 00:44 35.55321 139.78081 23 ft 1 kts 241°
2026-05-07 00:44 35.55313 139.78063 23 ft 4 kts 241°
2026-05-07 00:44 35.55297 139.78029 22 ft 5 kts 240°
2026-05-07 00:44 35.55275 139.77983 22 ft 7 kts 240°
2026-05-07 00:45 35.55249 139.77926 25 ft 8 kts 239°
2026-05-07 00:45 35.55231 139.77860 22 ft 8 kts 275°
2026-05-07 00:45 35.55239 139.77792 22 ft 8 kts 270°
2026-05-07 00:45 35.55207 139.77742 22 ft 8 kts 197°
2026-05-07 00:46 35.55155 139.77759 23 ft 8 kts 147°
2026-05-07 00:46 35.55105 139.77796 22 ft 9 kts 149°
2026-05-07 00:46 35.55052 139.77833 23 ft 9 kts 149°
2026-05-07 00:46 35.54996 139.77874 23 ft 10 kts 149°
2026-05-07 00:47 35.54936 139.77916 22 ft 10 kts 150°
2026-05-07 00:47 35.54878 139.77960 22 ft 10 kts 154°
2026-05-07 00:47 35.54818 139.77998 22 ft 10 kts 150°
2026-05-07 00:47 35.54762 139.78038 22 ft 9 kts 150°
2026-05-07 00:48 35.54707 139.78078 23 ft 9 kts 149°
2026-05-07 00:48 35.54653 139.78116 24 ft 9 kts 150°
2026-05-07 00:48 35.54601 139.78153 22 ft 9 kts 150°
2026-05-07 00:48 35.54543 139.78194 22 ft 12 kts 150°
2026-05-07 00:49 35.54457 139.78256 22 ft 17 kts 149°
2026-05-07 00:49 35.54340 139.78339 22 ft 22 kts 151°
2026-05-07 00:49 35.54201 139.78435 23 ft 23 kts 150°
2026-05-07 00:49 35.54066 139.78533 22 ft 22 kts 150°
2026-05-07 00:50 35.53933 139.78627 24 ft 22 kts 150°
2026-05-07 00:50 35.53805 139.78720 24 ft 22 kts 145°
2026-05-07 00:50 35.53780 139.78794 22 ft 7 kts 73°
2026-05-07 00:50 35.53772 139.78862 22 ft 10 kts 125°
2026-05-07 00:51 35.53711 139.78915 22 ft 12 kts 150°
2026-05-07 00:51 35.53631 139.78971 24 ft 14 kts 150°
2026-05-07 00:51 35.53538 139.79039 22 ft 17 kts 148°
2026-05-07 00:51 35.53432 139.79113 24 ft 18 kts 151°
2026-05-07 00:52 35.53376 139.79245 22 ft 19 kts 78°
2026-05-07 00:52 35.53440 139.79396 22 ft 21 kts 59°
2026-05-07 00:52 35.53517 139.79554 22 ft 23 kts 59°
2026-05-07 00:52 35.53598 139.79728 22 ft 24 kts 59°
2026-05-07 00:53 35.53686 139.79910 22 ft 25 kts 58°
2026-05-07 00:53 35.53640 139.80072 23 ft 23 kts 149°
2026-05-07 00:53 35.53502 139.80170 25 ft 22 kts 150°
2026-05-07 00:53 35.53381 139.80256 23 ft 17 kts 150°
2026-05-07 00:54 35.53285 139.80325 24 ft 10 kts 150°
2026-05-07 00:54 35.53225 139.80368 23 ft 10 kts 150°
2026-05-07 00:54 35.53166 139.80409 23 ft 10 kts 150°
2026-05-07 00:54 35.53110 139.80449 23 ft 9 kts 150°
2026-05-07 00:55 35.53054 139.80489 24 ft 9 kts 150°
2026-05-07 00:55 35.52998 139.80524 22 ft 9 kts 167°
2026-05-07 00:55 35.52942 139.80498 23 ft 9 kts 221°
2026-05-07 00:55 35.52888 139.80439 23 ft 11 kts 222°
2026-05-07 00:56 35.52852 139.80398 23 ft 11 kts 224°
2026-05-07 00:56 35.52800 139.80337 22 ft 10 kts 223°
2026-05-07 00:56 35.52742 139.80274 23 ft 12 kts 223°
2026-05-07 00:56 35.52676 139.80200 23 ft 14 kts 223°
2026-05-07 00:57 35.52593 139.80139 22 ft 15 kts 172°
2026-05-07 00:57 35.52517 139.80219 22 ft 15 kts 133°
2026-05-07 00:57 35.52479 139.80269 24 ft 0 kts 132°
2026-05-07 01:00 35.52475 139.80276 22 ft 3 kts 132°
2026-05-07 01:00 35.52445 139.80319 22 ft 10 kts 125°
2026-05-07 01:00 35.52445 139.80393 25 ft 7 kts 46°
2026-05-07 01:00 35.52451 139.80400 25 ft 0 kts 43°
2026-05-07 01:01 35.52452 139.80401 25 ft 1 kts 43°
2026-05-07 01:01 35.52524 139.80482 24 ft 43 kts 42°
2026-05-07 01:02 35.52920 139.80926 25 ft 109 kts 42°
2026-05-07 01:02 35.53622 139.81712 29 ft 162 kts 43°
2026-05-07 01:02 35.54515 139.82716 414 ft 178 kts 45°
2026-05-07 01:02 35.55379 139.83837 997 ft 184 kts 57°
2026-05-07 01:03 35.55967 139.85216 1677 ft 181 kts 65°
2026-05-07 01:03 35.56534 139.86633 2364 ft 193 kts 63°
2026-05-07 01:03 35.57243 139.88160 2802 ft 216 kts 60°
2026-05-07 01:03 35.58053 139.89849 3025 ft 242 kts 60°
2026-05-07 01:04 35.58930 139.91685 3551 ft 251 kts 61°
2026-05-07 01:04 35.59816 139.93586 4122 ft 266 kts 61°
2026-05-07 01:04 35.60937 139.95499 4426 ft 293 kts 42°
2026-05-07 01:04 35.62736 139.96656 5183 ft 296 kts
2026-05-07 01:05 35.64760 139.96677 6201 ft 286 kts 351°
2026-05-07 01:05 35.66751 139.96485 7094 ft 289 kts 354°
2026-05-07 01:05 35.68826 139.96496 7635 ft 305 kts 359°
2026-05-07 01:05 35.70934 139.96610 8602 ft 300 kts 359°
2026-05-07 01:06 35.72985 139.96746 9588 ft 298 kts 358°
2026-05-07 01:06 35.75045 139.96471 10240 ft 300 kts 338°
2026-05-07 01:06 35.77056 139.95525 10479 ft 321 kts 333°
2026-05-07 01:06 35.79181 139.94404 10768 ft 341 kts 333°
2026-05-07 01:07 35.81395 139.93262 11479 ft 347 kts 334°
2026-05-07 01:07 35.83652 139.92146 12237 ft 351 kts 334°
2026-05-07 01:07 35.85923 139.91059 12939 ft 356 kts 335°
2026-05-07 01:07 35.88247 139.89964 13630 ft 360 kts 335°
2026-05-07 01:08 35.90604 139.88856 14267 ft 364 kts 335°
2026-05-07 01:08 35.92983 139.87738 14880 ft 367 kts 335°
2026-05-07 01:08 35.95386 139.86607 15497 ft 371 kts 335°
2026-05-07 01:08 35.97873 139.85659 16086 ft 380 kts 348°
2026-05-07 01:09 36.00548 139.85753 16671 ft 392 kts 10°
2026-05-07 01:09 36.03154 139.86817 17303 ft 396 kts 18°
2026-05-07 01:09 36.05737 139.88068 17873 ft 401 kts 19°
2026-05-07 01:09 36.08344 139.89356 18399 ft 405 kts 19°
2026-05-07 01:10 36.10973 139.90638 18882 ft 408 kts 19°
2026-05-07 01:10 36.13633 139.91906 19392 ft 410 kts 18°
2026-05-07 01:10 36.16267 139.93146 19888 ft 413 kts 18°
2026-05-07 01:10 36.18972 139.94394 20353 ft 415 kts 15°
2026-05-07 01:11 36.21795 139.95002 20810 ft 412 kts 357°
2026-05-07 01:11 36.24656 139.94920 21342 ft 412 kts 354°
2026-05-07 01:11 36.27534 139.94778 21823 ft 415 kts 354°
2026-05-07 01:11 36.30430 139.94645 22275 ft 418 kts 354°
2026-05-07 01:12 36.33348 139.94537 22737 ft 421 kts 355°
2026-05-07 01:12 36.36290 139.94449 23206 ft 424 kts 355°
2026-05-07 01:12 36.39220 139.94371 23655 ft 426 kts 355°
2026-05-07 01:12 36.42193 139.94296 24033 ft 429 kts 355°
2026-05-07 01:13 36.45196 139.94330 24408 ft 432 kts 358°
2026-05-07 01:13 36.48205 139.94453 24790 ft 434 kts 358°
2026-05-07 01:13 36.51231 139.94608 25167 ft 436 kts 358°
2026-05-07 01:13 36.54273 139.94764 25535 ft 438 kts 358°
2026-05-07 01:14 36.57330 139.94913 25905 ft 440 kts 358°
2026-05-07 01:14 36.60406 139.95053 26270 ft 443 kts 358°
2026-05-07 01:14 36.63497 139.95187 26615 ft 445 kts 358°
2026-05-07 01:14 36.66563 139.95316 26947 ft 447 kts 358°
2026-05-07 01:15 36.69678 139.95446 27274 ft 450 kts 358°
2026-05-07 01:15 36.72813 139.95577 27599 ft 452 kts 357°
2026-05-07 01:15 36.75970 139.95709 27911 ft 455 kts 357°
2026-05-07 01:15 36.79136 139.95843 28222 ft 457 kts 357°
2026-05-07 01:16 36.82326 139.95978 28531 ft 459 kts 357°
2026-05-07 01:16 36.85533 139.96113 28836 ft 462 kts 357°
2026-05-07 01:16 36.88758 139.96424 29106 ft 468 kts
2026-05-07 01:16 36.91981 139.97204 29395 ft 473 kts
2026-05-07 01:17 36.95201 139.98099 29668 ft 476 kts
2026-05-07 01:17 36.98433 139.98997 29934 ft 478 kts
2026-05-07 01:17 37.01701 139.99865 30179 ft 480 kts
2026-05-07 01:17 37.04975 140.00709 30473 ft 480 kts
2026-05-07 01:18 37.08194 140.01534 30917 ft 476 kts
2026-05-07 01:18 37.11427 140.02364 31398 ft 472 kts
2026-05-07 01:18 37.14637 140.03190 31802 ft 469 kts
2026-05-07 01:18 37.17835 140.04014 32156 ft 468 kts
2026-05-07 01:19 37.21026 140.04837 32499 ft 467 kts
2026-05-07 01:19 37.24203 140.05658 32874 ft 465 kts
2026-05-07 01:19 37.27364 140.06477 33257 ft 463 kts
2026-05-07 01:19 37.30524 140.07297 33626 ft 461 kts
2026-05-07 01:20 37.33621 140.08101 33966 ft 459 kts
2026-05-07 01:20 37.36751 140.08914 34228 ft 459 kts
2026-05-07 01:20 37.39875 140.09724 34425 ft 460 kts
2026-05-07 01:20 37.43012 140.10539 34623 ft 461 kts
2026-05-07 01:21 37.46159 140.11360 34853 ft 461 kts
2026-05-07 01:21 37.49296 140.12178 35027 ft 462 kts
2026-05-07 01:21 37.52455 140.12999 35012 ft 465 kts
2026-05-07 01:22 37.58807 140.14651 35024 ft 465 kts
2026-05-07 01:22 37.65059 140.16277 35023 ft 459 kts
2026-05-07 01:23 37.71276 140.17902 35025 ft 458 kts
2026-05-07 01:23 37.77515 140.19537 35016 ft 457 kts
2026-05-07 01:24 37.83744 140.21174 35023 ft 457 kts
2026-05-07 01:24 37.89955 140.22807 35029 ft 458 kts
2026-05-07 01:25 37.96217 140.24457 35035 ft 461 kts
2026-05-07 01:25 38.02523 140.26113 35034 ft 463 kts
2026-05-07 01:26 38.08819 140.27773 35021 ft 465 kts
2026-05-07 01:26 38.15171 140.29460 35027 ft 466 kts
2026-05-07 01:27 38.21532 140.31153 35019 ft 467 kts
2026-05-07 01:27 38.27906 140.32853 35027 ft 468 kts
2026-05-07 01:28 38.34281 140.34558 35025 ft 468 kts
2026-05-07 01:28 38.40622 140.36144 35025 ft 464 kts
2026-05-07 01:29 38.47021 140.37088 35022 ft 461 kts 357°
2026-05-07 01:29 38.53411 140.37920 35025 ft 461 kts 358°
2026-05-07 01:30 38.59817 140.38829 35023 ft 462 kts 358°
2026-05-07 01:30 38.66172 140.39760 35021 ft 462 kts 358°
2026-05-07 01:31 38.72571 140.40698 35027 ft 462 kts 358°
2026-05-07 01:31 38.78929 140.41632 35024 ft 461 kts 358°
2026-05-07 01:32 38.85301 140.42560 35021 ft 461 kts 358°
2026-05-07 01:32 38.91684 140.43497 35019 ft 461 kts 358°
2026-05-07 01:33 38.98060 140.44431 35024 ft 460 kts 358°
2026-05-07 01:33 39.04380 140.45380 35027 ft 458 kts 358°
2026-05-07 01:34 39.10728 140.46308 35011 ft 458 kts 358°
2026-05-07 01:34 39.17057 140.47241 35020 ft 457 kts 357°
2026-05-07 01:35 39.23353 140.48175 35017 ft 457 kts 357°
2026-05-07 01:35 39.29685 140.49118 35015 ft 457 kts 357°
2026-05-07 01:36 39.35985 140.50059 35014 ft 458 kts 357°
2026-05-07 01:36 39.42312 140.51006 35009 ft 458 kts 357°
2026-05-07 01:37 39.48656 140.51958 35011 ft 458 kts 357°
2026-05-07 01:37 39.55011 140.52916 35007 ft 459 kts 358°
2026-05-07 01:38 39.61321 140.53875 35002 ft 459 kts 358°
2026-05-07 01:38 39.67676 140.54831 35007 ft 459 kts 358°
2026-05-07 01:39 39.74032 140.55775 35007 ft 459 kts 357°
2026-05-07 01:39 39.80352 140.56682 35007 ft 460 kts 357°
2026-05-07 01:40 39.86731 140.57607 35006 ft 461 kts 357°
2026-05-07 01:40 39.93140 140.58538 35006 ft 462 kts 357°
2026-05-07 01:41 39.99502 140.59464 34984 ft 462 kts 357°
2026-05-07 01:41 40.05901 140.60399 34990 ft 462 kts 357°
2026-05-07 01:42 40.12292 140.61335 34986 ft 461 kts 357°
2026-05-07 01:42 40.18630 140.62263 34979 ft 460 kts 356°
2026-05-07 01:43 40.24996 140.63191 34988 ft 461 kts 356°
2026-05-07 01:43 40.31410 140.64120 34973 ft 462 kts 356°
2026-05-07 01:44 40.37770 140.65086 34983 ft 462 kts 356°
2026-05-07 01:44 40.44173 140.66063 34970 ft 463 kts 356°
2026-05-07 01:45 40.49503 140.66872 34967 ft 463 kts 356°
2026-05-07 01:45 40.56965 140.67979 34947 ft 464 kts 356°
2026-05-07 01:46 40.62309 140.68769 34949 ft 464 kts 356°
2026-05-07 01:46 40.68747 140.69727 34944 ft 465 kts 356°
2026-05-07 01:47 40.75192 140.70680 34952 ft 465 kts 355°
2026-05-07 01:47 40.81579 140.71461 34935 ft 463 kts 354°
2026-05-07 01:48 40.88029 140.72208 34945 ft 464 kts 354°
2026-05-07 01:48 40.94463 140.72984 34947 ft 464 kts 355°
2026-05-07 01:49 41.00858 140.73760 34947 ft 464 kts 354°
2026-05-07 01:49 41.07289 140.74531 34945 ft 464 kts 354°
2026-05-07 01:50 41.13743 140.75311 34943 ft 464 kts 354°
2026-05-07 01:50 41.20140 140.76095 34941 ft 464 kts 354°
2026-05-07 01:51 41.26573 140.76892 34941 ft 464 kts 354°
2026-05-07 01:51 41.33018 140.77695 34940 ft 464 kts 354°
2026-05-07 01:52 41.39412 140.78501 34931 ft 456 kts 354°
2026-05-07 01:52 41.45690 140.79280 34940 ft 450 kts 354°
2026-05-07 01:53 41.51903 140.80032 34533 ft 451 kts 354°
2026-05-07 01:53 41.55015 140.80416 34178 ft 446 kts 354°
2026-05-07 01:53 41.58089 140.80799 33784 ft 443 kts 355°
2026-05-07 01:53 41.61153 140.81183 33370 ft 439 kts 355°
2026-05-07 01:54 41.64195 140.81558 32972 ft 436 kts 355°
2026-05-07 01:54 41.67172 140.81928 32587 ft 433 kts 355°
2026-05-07 01:54 41.70161 140.82302 32204 ft 429 kts 355°
2026-05-07 01:54 41.73124 140.82667 31828 ft 426 kts 355°
2026-05-07 01:55 41.76066 140.83030 31457 ft 423 kts 356°
2026-05-07 01:55 41.78989 140.83621 31122 ft 428 kts
2026-05-07 01:55 41.81863 140.84594 30915 ft 422 kts
2026-05-07 01:55 41.84692 140.85585 30636 ft 417 kts
2026-05-07 01:56 41.87501 140.86538 30304 ft 415 kts
2026-05-07 01:56 41.90304 140.87466 29947 ft 413 kts
2026-05-07 01:56 41.93079 140.88385 29651 ft 408 kts
2026-05-07 01:56 41.95819 140.89293 29278 ft 405 kts
2026-05-07 01:57 41.98512 140.90328 28834 ft 413 kts 17°
2026-05-07 01:57 42.00959 140.92438 28499 ft 425 kts 38°
2026-05-07 01:57 42.02786 140.95597 28111 ft 432 kts 60°
2026-05-07 01:57 42.03791 140.99392 27750 ft 431 kts 75°
2026-05-07 01:58 42.04482 141.03307 27378 ft 429 kts 77°
2026-05-07 01:58 42.05123 141.07232 26992 ft 428 kts 77°
2026-05-07 01:58 42.05761 141.11142 26614 ft 426 kts 77°
2026-05-07 01:58 42.06413 141.15032 26225 ft 425 kts 76°
2026-05-07 01:59 42.07069 141.18854 25860 ft 423 kts 76°
2026-05-07 01:59 42.07739 141.22712 25474 ft 422 kts 76°
2026-05-07 01:59 42.08411 141.26565 25087 ft 422 kts 76°
2026-05-07 01:59 42.09081 141.30404 24702 ft 421 kts 76°
2026-05-07 02:00 42.09750 141.34246 24317 ft 421 kts 76°
2026-05-07 02:00 42.10414 141.38073 23941 ft 420 kts 76°
2026-05-07 02:00 42.11078 141.41910 23558 ft 420 kts 76°
2026-05-07 02:00 42.11731 141.45701 23130 ft 419 kts 77°
2026-05-07 02:01 42.12436 141.49501 22723 ft 416 kts 69°
2026-05-07 02:01 42.13789 141.52903 22337 ft 408 kts 48°
2026-05-07 02:01 42.15769 141.55546 21977 ft 395 kts 31°
2026-05-07 02:01 42.17959 141.57747 21616 ft 391 kts 30°
2026-05-07 02:02 42.20164 141.59901 21243 ft 389 kts 30°
2026-05-07 02:02 42.22337 141.62026 20880 ft 388 kts 30°
2026-05-07 02:02 42.24512 141.64167 20515 ft 386 kts 30°
2026-05-07 02:02 42.26668 141.66315 20155 ft 384 kts 31°
2026-05-07 02:03 42.28816 141.68468 19786 ft 383 kts 31°
2026-05-07 02:03 42.30927 141.70595 19419 ft 382 kts 31°
2026-05-07 02:03 42.33052 141.72743 19051 ft 381 kts 31°
2026-05-07 02:03 42.35170 141.74890 18692 ft 380 kts 32°
2026-05-07 02:04 42.37286 141.77034 18309 ft 380 kts 32°
2026-05-07 02:04 42.39401 141.79174 17922 ft 379 kts 32°
2026-05-07 02:04 42.41508 141.81311 17536 ft 377 kts 32°
2026-05-07 02:04 42.43604 141.83443 17156 ft 375 kts 32°
2026-05-07 02:05 42.45686 141.85562 16782 ft 373 kts 32°
2026-05-07 02:05 42.47756 141.87663 16414 ft 371 kts 32°
2026-05-07 02:05 42.49795 141.89733 16080 ft 369 kts 32°
2026-05-07 02:05 42.51839 141.91813 15730 ft 366 kts 32°
2026-05-07 02:06 42.53897 141.93820 15379 ft 361 kts 24°
2026-05-07 02:06 42.56206 141.94943 15048 ft 345 kts
2026-05-07 02:06 42.58550 141.95004 14703 ft 331 kts 345°
2026-05-07 02:06 42.60821 141.94537 14382 ft 328 kts 342°
2026-05-07 02:07 42.63067 141.94003 14027 ft 327 kts 342°
2026-05-07 02:07 42.67519 141.92960 13327 ft 325 kts 343°
2026-05-07 02:07 42.69744 141.92463 13030 ft 321 kts 343°
2026-05-07 02:08 42.71947 141.91978 12687 ft 319 kts 343°
2026-05-07 02:08 42.74116 141.91504 12381 ft 317 kts 343°
2026-05-07 02:08 42.76292 141.91026 12056 ft 316 kts 343°
2026-05-07 02:08 42.78480 141.90549 11551 ft 321 kts 343°
2026-05-07 02:09 42.80707 141.90064 11007 ft 326 kts 344°
2026-05-07 02:09 42.82936 141.89579 10463 ft 331 kts 344°
2026-05-07 02:09 42.85225 141.89079 9884 ft 336 kts 344°
2026-05-07 02:09 42.87499 141.88585 9836 ft 323 kts 344°
2026-05-07 02:10 42.89670 141.88115 9733 ft 307 kts 344°
2026-05-07 02:10 42.91726 141.87668 9617 ft 290 kts 343°
2026-05-07 02:10 42.93685 141.87239 9369 ft 281 kts 343°
2026-05-07 02:10 42.95618 141.86814 8895 ft 280 kts 343°
2026-05-07 02:11 42.97544 141.86387 8424 ft 280 kts 343°
2026-05-07 02:11 42.99486 141.85951 7734 ft 288 kts 344°
2026-05-07 02:11 43.01495 141.85504 7000 ft 297 kts 344°
2026-05-07 02:11 43.03518 141.84991 6300 ft 300 kts 335°
2026-05-07 02:12 43.05293 141.83598 5606 ft 288 kts 309°
2026-05-07 02:12 43.06399 141.81424 5108 ft 274 kts 287°
2026-05-07 02:12 43.06756 141.78937 4597 ft 263 kts 266°
2026-05-07 02:12 43.06463 141.76496 4147 ft 258 kts 249°
2026-05-07 02:13 43.05617 141.74362 3719 ft 254 kts 233°
2026-05-07 02:13 43.04536 141.72509 3319 ft 250 kts 230°
2026-05-07 02:13 43.03428 141.70699 2962 ft 246 kts 230°
2026-05-07 02:13 43.02373 141.68967 2962 ft 229 kts 229°
2026-05-07 02:14 43.01387 141.67338 2977 ft 214 kts 230°
2026-05-07 02:14 43.00385 141.65904 2910 ft 203 kts 210°
2026-05-07 02:14 42.99068 141.65547 2997 ft 189 kts 185°
2026-05-07 02:14 42.97813 141.65535 2982 ft 171 kts 185°
2026-05-07 02:15 42.96626 141.65598 2974 ft 169 kts 181°
2026-05-07 02:15 42.95496 141.65774 3009 ft 157 kts 177°
2026-05-07 02:15 42.94429 141.65987 2972 ft 154 kts 180°
2026-05-07 02:15 42.93382 141.66161 2947 ft 151 kts 180°
2026-05-07 02:16 42.92334 141.66339 2775 ft 153 kts 180°
2026-05-07 02:16 42.91267 141.66535 2558 ft 150 kts 178°
2026-05-07 02:16 42.90249 141.66697 2366 ft 144 kts 180°
2026-05-07 02:16 42.89250 141.66919 2166 ft 142 kts 175°
2026-05-07 02:17 42.88281 141.67096 1999 ft 140 kts 177°
2026-05-07 02:17 42.87312 141.67263 1767 ft 136 kts 176°
2026-05-07 02:17 42.86367 141.67432 1601 ft 139 kts 174°
2026-05-07 02:17 42.85379 141.67600 1343 ft 146 kts 175°
2026-05-07 02:18 42.84362 141.67802 1117 ft 151 kts 173°
2026-05-07 02:18 42.83321 141.67998 911 ft 149 kts 171°
2026-05-07 02:18 42.82305 141.68184 756 ft 150 kts 170°
2026-05-07 02:18 42.81261 141.68374 630 ft 152 kts 169°
2026-05-07 02:19 42.80222 141.68566 430 ft 146 kts 168°
2026-05-07 02:19 42.79237 141.68742 213 ft 144 kts 167°
2026-05-07 02:19 42.78264 141.68905 91 ft 131 kts 166°
2026-05-07 02:19 42.77732 141.69004 82 ft 42 kts 172°
2026-05-07 02:20 42.77514 141.69011 83 ft 16 kts 221°
2026-05-07 02:20 42.77497 141.68930 84 ft 9 kts 264°
2026-05-07 02:20 42.77500 141.68849 82 ft 9 kts 288°
2026-05-07 02:20 42.77525 141.68779 80 ft 9 kts 275°
2026-05-07 02:21 42.77535 141.68687 80 ft 11 kts 300°
2026-05-07 02:21 42.77607 141.68617 85 ft 15 kts 343°
2026-05-07 02:21 42.77717 141.68597 85 ft 17 kts 353°
2026-05-07 02:21 42.77845 141.68574 82 ft 20 kts 352°
2026-05-07 02:22 42.77988 141.68549 84 ft 22 kts 353°
2026-05-07 02:22 42.78141 141.68522 87 ft 23 kts 353°
2026-05-07 02:22 42.78297 141.68495 88 ft 22 kts 354°
2026-05-07 02:22 42.78442 141.68469 89 ft 15 kts 355°
2026-05-07 02:23 42.78544 141.68443 89 ft 15 kts 330°
2026-05-07 02:23 42.78592 141.68325 86 ft 14 kts 296°
2026-05-07 02:23 42.78626 141.68228 88 ft 0 kts 296°